Погода в Шамхале

Россия / Республика Дагестан     43°03′28″N   47°20′26″E
темп.,
°C
ветер,
м/с
пор.,
м/с
влажн.,
%
обл.,
%
осадки,
мм/ч
давл.,
гПа
погр.,
м
13 апреля, вт
вт1300:00+11юв11730 0.0 102112
03:00+10ссз11795 0.0 102111
06:00+9ссз1184100 0.0 102320
09:00+14вюв3660100 0.0 1021638
12:00+19вюв8113399 0.0 10191212
15:00+18в711340 0.0 1018927
18:00+15в34475 0.0 1018111
21:00+11юв1160100 0.0 101821
14 апреля, ср
ср1400:00+11зсз2272100 0.0 101735
03:00+10сз2283100 0.0 101623
06:00+10сз258358 0.0 1016123
09:00+15сз666475 0.0 1016890
12:00+17сз9753100 0.0 10151180
15:00+16сз9956100 0.0 10151122
18:00+13з5862100 0.2 1015447
21:00+13з5962100 0.3 1016459
15 апреля, чт
чт1500:00+13з4865100 0.1 1016407
03:00+13з596495 0.1 1014286
06:00+13з366187 0.0 1015207
09:00+17сз9114617 0.0 10151155
12:00+20сз1011361 0.0 10141502
15:00+21сз1012314 0.0 10141718
18:00+18ссз58460 0.0 1015281
21:00+15зюз225338 0.0 101621
16 апреля, пт
пт1600:00+14юз225230 0.0 101513
03:00+12зюз12575 0.0 101614
06:00+13зюз115919 0.0 101717
09:00+18сз2243100 0.0 1017726
12:00+21с323593 0.0 10161589
15:00+21всв433368 0.0 10151662
18:00+19вюв46455 0.0 1016190
21:00+16ююв335517 0.0 101637
17 апреля, сб
сб1700:00+14ю11625 0.0 101613
03:00+13ююз11655 0.0 101611
06:00+14ююз116495 0.0 101611
09:00+17ссз7753100 0.0 1019768
12:00+18сз101053100 0.0 10191242
15:00+16сз8862100 0.0 10201044
18:00+14зсз5666100 0.0 1022660
21:00+14зсз3368100 0.0 1022414